Preview of NWS' New Version of Forecast
This preview is not operational and should not be used for support decisions.
Latest weather observations around

Huntsville, Madison County Executive Airport (KMDQ)

Using English Units (Switch to International System of Units)
Date/ Time (CDT) Wind (mph) Vis. (mi) Weather Sky Cond. Temp (°F) Rel. Humidity Wind Chill (°F) Heat Index (°F) Pressure Precip. (in)
Air Dwpt 6 hour Altimeter (inHg) Sea level (inHg) 1 hr 3 hr 6 hr
Max Min
Apr 19 23:15 N 9 10 Clear CLR 44 32     64% 39   30.31        
Apr 19 22:55 N 9 10 Clear CLR 44 33     63% 39   30.31        
Apr 19 22:35 N 9 10 Clear CLR 45 33     63% 40   30.31        
Notice The following observation data may not be complete
Apr 19 21:55   10 Clear CLR          %              
Notice The following observation data may not be complete
Apr 19 21:35   10 Clear CLR          %              
Apr 19 21:15 N 13 10 Clear CLR 46 33     59% 41   30.31        
Apr 19 20:35 NNW 9 10 Clear CLR 45 33     62% 41   30.29        
Apr 19 20:15 N 11 10 Clear CLR 48 32     55% 43   30.28        
Apr 19 19:55 N 9 10 Clear CLR 48 33     56% 43   30.28        
Apr 19 19:35 N 9 10 Clear CLR 49 32     52% 45   30.27        
Apr 19 19:15 N 10 10 Clear CLR 50 31     49% 45   30.26        
Apr 19 18:55 N 11 10 Clear CLR 50 31     47%     30.26        
Apr 19 18:35 NNE 11 10 Clear CLR 51 30     44%     30.26        
Apr 19 18:15 NNE 11 10 Clear CLR 52 30     42%     30.26        
Apr 19 17:55 NNE 13 10 Clear CLR 53 30     42%     30.25        
Apr 19 17:35 N 14 10 Clear CLR 54 31     42%     30.25        
Apr 19 17:15 N 13 10 Clear CLR 54 31     42%     30.25        
Apr 19 16:55 N 15 10 Clear CLR 54 31     42%     30.25        
Apr 19 16:35 N 18 10 Clear CLR 54 32     42%     30.25        
Apr 19 16:15 N 14 10 Clear CLR 55 32     42%     30.25        
Apr 19 15:55 N 17 10 Clear CLR 55 33     43%     30.25        
Apr 19 15:35 N 16 10 Partly Cloudy SCT050 54 32     43%     30.25        
Apr 19 15:15 N 10 10 Clear CLR 54 31     41%     30.25        
Apr 19 14:55 N 9 10 Clear CLR 54 32     43%     30.25        
Apr 19 14:35 N 17 10 Clear CLR 54 32     44%     30.25        
Apr 19 14:15 N 14 10 Partly Cloudy SCT049 53 32     44%     30.25        
Apr 19 13:55 NNW 11 10 Partly Cloudy SCT047 52 32     47%     30.25        
Apr 19 13:35 NNW 14 10 Partly Cloudy SCT046 52 31     45%     30.25        
Apr 19 13:15 NNE 9 10 Partly Cloudy SCT046 51 31     46%     30.25        
Apr 19 12:55 N 17 10 Partly Cloudy SCT044 51 31     47%     30.26        
Apr 19 12:35 N 15 10 Mostly Cloudy BKN044 51 32     48%     30.25        
Apr 19 12:15 NNW 18 10 Mostly Cloudy BKN046 50 32     49%     30.25        
Apr 19 11:55   10 Mostly Cloudy BKN044 51 31     47%     30.25        
Apr 19 11:35 N 14 10 Mostly Cloudy BKN044 50 31     47% 45   30.24        
Apr 19 11:15 N 17 10 Partly Cloudy SCT042 51 31     46%     30.24        
Apr 19 10:55   10 Mostly Cloudy BKN040 50 31     49%     30.23        
Apr 19 10:35 N 17 10 Cloudy OVC036 49 32     53% 42   30.22        
Apr 19 10:15 N 15 10 Cloudy OVC032 47 32     57% 41   30.21        
Apr 19 09:55   10 Cloudy OVC032 48 35     60%     30.19        
Apr 19 09:35 N 16 10 Cloudy OVC034 49 36     61% 43   30.17        
Apr 19 09:15 NNW 15 10 Cloudy OVC034 48 35     61% 42   30.16        
Apr 19 08:55 NW 11 10 Cloudy OVC032 48 35     61% 43   30.15        
Apr 19 08:35 NNW 17 10 Cloudy OVC032 48 36     62% 42   30.15        
Apr 19 08:15   10 Cloudy OVC034 48 36     62%     30.14        
Apr 19 07:55 NNW 17 10 Partly Cloudy SCT034 49 37     63% 43   30.13        
Apr 19 07:35 NNW 16 10 Clear CLR 48 37     66% 42   30.12        
Apr 19 07:15 N 16 10 Clear CLR 47 37     66% 41   30.11        
Apr 19 06:55 NNW 15 10 Clear CLR 47 38     70% 40   30.1        
Apr 19 06:35 N 14 10 Clear CLR 47 37     69% 41   30.09        
Apr 19 06:15 N 13 10 Clear CLR 47 38     69% 42   30.08        
Apr 19 05:55 N 9 10 Clear CLR 47 39     72% 43   30.07        
Apr 19 05:35 N 11 10 Clear CLR 47 40     77% 41   30.06        
Apr 19 05:15 N 8 10 Clear CLR 47 40     78% 43   30.05        
Apr 19 04:55 NNW 10 10 Clear CLR 49 40     71% 45   30.03        
Notice The following observation data may not be complete
Apr 19 04:35   10 Clear CLR          %              
Apr 19 04:15 N 15 10 Clear CLR 52 41     67%     30.02        
Apr 19 03:55 N 15 10 Clear CLR 53 42     68%     30.01        
Apr 19 03:35 N 11 10 Clear CLR 54 44     69%     30        
Apr 19 03:15   10 Clear CLR 56 44     65%     29.99        
Apr 19 02:55   10 Clear CLR 57 44     61%     29.98        
Apr 19 02:35 NW 9 10 Clear CLR 58 44     61%     29.97        
Apr 19 02:15 WNW 10 10 Partly Cloudy SCT075 59 44     58%     29.96        
Apr 19 01:55 WNW 11 10 Cloudy OVC075 61 45     56%     29.96        
Apr 19 01:35 WNW 11 10 Cloudy SCT050 OVC075 62 46     55%     29.96        
Apr 19 01:15 NW 14 10 Cloudy BKN050 OVC075 63 51     64%     29.95        
Apr 19 00:35 W 7 10 Cloudy BKN048 OVC055 64 58     81%     29.95        
Apr 19 00:15 W 9 10 Cloudy SCT024 SCT038 OVC050 65 58     77%     29.95        
Apr 18 23:55 W 11 7 Cloudy SCT024 SCT043 OVC050 65 59     81%     29.95        
Apr 18 23:35 SW 14 10 Cloudy SCT060 BKN070 OVC080 67 59     75%     29.92        
Apr 18 23:15 SW 14 10 Partly Cloudy SCT080 67 59     75%     29.92        
Apr 18 22:55 SW 15 10 Clear CLR 67 58     75%     29.92        
Apr 18 22:35 SW 15 10 Clear CLR 67 58     75%     29.93        
Apr 18 22:15 SW 14 10 Clear CLR 67 58     75%     29.93        
Apr 18 21:55 SW 11 10 Clear CLR 66 58     75%     29.92        
Apr 18 21:35 SW 11 10 Clear CLR 67 58     74%     29.93        
Apr 18 21:15 SW 9 10 Clear CLR 66 58     77%     29.93        
Apr 18 20:55 WSW 13 10 Clear CLR 67 58     72%     29.93        
Apr 18 20:35 WSW 9 10 Clear CLR 68 58     71%     29.93        
Apr 18 20:15 WSW 9 10 Clear CLR 68 58     70%     29.92        
Apr 18 19:55 WSW 13 10 Clear CLR 69 58     69%     29.91        
Apr 18 19:35 WSW 9 10 Mostly Cloudy SCT046 BKN050 69 58     67%     29.91        
Apr 18 19:15 WSW 15 10 Cloudy BKN048 OVC050 70 58     65%   70 29.91        
Apr 18 18:55 WSW 14 10 Cloudy OVC050 71 58     65%   70 29.91        
Apr 18 18:35 WSW 13 10 Cloudy OVC050 71 58     64%   71 29.9        
Apr 18 18:15 W 13 10 Cloudy OVC050 71 58     64%   71 29.9        
Apr 18 17:55 W 10 10 Cloudy OVC050 72 58     62%   71 29.9        
Apr 18 17:35 W 13 10 Cloudy OVC050 72 58     62%   72 29.9        
Apr 18 17:15 W 16 10 Cloudy OVC050 72 58     60%   72 29.9        
Apr 18 16:55 WSW 17 10 Mostly Cloudy BKN050 73 58     59%   73 29.89        
Apr 18 16:35 W 15 10 Mostly Cloudy BKN050 75 58     56%   75 29.89        
Apr 18 16:15 WSW 15 10 Cloudy OVC050 76 59     55%   76 29.88        
Apr 18 15:55 W 15 10 Cloudy OVC046 74 58     58%   74 29.88        
Apr 18 15:35 W 13 10 Cloudy OVC046 75 58     57%   74 29.88        
Apr 18 15:15 W 10 10 Cloudy OVC046 75 58     55%   75 29.88        
Apr 18 14:55 WSW 8 10 Cloudy OVC044 76 59     55%   76 29.88        
Apr 18 14:35 WSW 15 10 Mostly Cloudy BKN044 75 58     55%   75 29.89        
Apr 18 14:15 SW 17 10 Mostly Cloudy BKN044 75 58     55%   75 29.89        
Apr 18 13:55 WSW 15 10 Mostly Cloudy BKN042 75 58     55%   75 29.9        
Apr 18 13:35 SW 16 10 Cloudy OVC040 73 57     56%   73 29.9        
Apr 18 13:15   10 Mostly Cloudy BKN040 73 57     56%   73 29.9        
Apr 18 12:55 SW 17 10 Mostly Cloudy BKN040 73 56     55%   73 29.91        
Apr 18 12:35 WSW 16 10 Clear CLR 73 57     57%   72 29.92        
Apr 18 12:15 SW 17 10 Partly Cloudy SCT038 72 56     58%   71 29.92        
Apr 18 11:55 SW 15 10 Partly Cloudy SCT038 71 56     58%   71 29.93        
Apr 18 11:35 WSW 16 10 Mostly Cloudy BKN038 70 55     59%   70 29.94        
Apr 18 11:15 SSW 15 10 Mostly Cloudy BKN038 69 54     58%     29.94        
Apr 18 10:55 WSW 17 10 Mostly Cloudy BKN038 69 54     59%     29.94        
Apr 18 10:35 SW 15 10 Partly Cloudy SCT036 69 54     59%     29.94        
Apr 18 10:15 SW 13 10 Clear CLR 67 54     62%     29.94        
Apr 18 09:55 S 16 10 Clear CLR 66 53     62%     29.93        
Apr 18 09:35 SSW 16 10 Clear CLR 65 53     65%     29.94        
Apr 18 09:15 SSW 16 10 Clear CLR 64 52     65%     29.95        
Apr 18 08:55 SSW 14 10 Clear CLR 63 52     68%     29.96        
Apr 18 08:35 SW 14 10 Clear CLR 62 52     69%     29.97        
Apr 18 08:15 SSW 14 10 Clear CLR 61 51     68%     29.94        
Apr 18 07:55 S 13 10 Clear CLR 60 50     69%     29.94        
Apr 18 07:35 S 13 10 Clear CLR 59 49     68%     29.94        
Apr 18 07:15 S 11 10 Clear CLR 58 48     69%     29.94        
Apr 18 06:55 S 10 10 Clear CLR 58 48     68%     29.94        
Apr 18 06:35 S 9 10 Clear CLR 58 47     68%     29.93        
Apr 18 06:15 S 9 10 Clear CLR 58 47     67%     29.92        
Apr 18 05:55 S 9 10 Clear CLR 58 47     65%     29.91        
Apr 18 05:35 S 8 10 Clear CLR 58 47     65%     29.91        
Apr 18 05:15 S 13 10 Clear CLR 59 46     62%     29.9        
Apr 18 04:55 S 9 10 Clear CLR 59 46     61%     29.89        
Apr 18 04:35 S 8 10 Clear CLR 59 45     60%     29.9        
Apr 18 04:15 SSE 8 10 Clear CLR 59 45     60%     29.9        
Apr 18 03:55 SSE 7 10 Clear CLR 60 44     57%     29.9        
Apr 18 03:35 S 9 10 Clear CLR 61 44     53%     29.89        
Apr 18 03:15 S 9 10 Clear CLR 60 44     54%     29.89        
Apr 18 02:55 S 10 10 Clear CLR 62 43     50%     29.89        
Apr 18 02:35 S 7 10 Clear CLR 62 44     52%     29.89        
Apr 18 02:15 S 8 10 Clear CLR 62 44     51%     29.88        
Apr 18 01:55 S 7 10 Clear CLR 60 44     55%     29.89        
Apr 18 01:30 S 6 10 Clear CLR 62 44     50%     29.88        
Apr 18 01:15 Calm 10 Clear CLR 60 44     57%     29.89        
Apr 18 00:55 Calm 10 Clear CLR 62 44     52%     29.88        
Apr 18 00:35 SSW 6 10 Clear CLR 61 45     55%     29.88        
Apr 18 00:15 SSW 8 10 Clear CLR 62 45     54%     29.88        
Apr 17 23:55 SSW 7 10 Clear CLR 62 45     53%     29.88        
Apr 17 23:35 S 9 10 Clear CLR 64 44     48%     29.88        
Apr 17 23:15 S 6 10 Clear CLR 64 44     48%     29.89        
Apr 17 22:55 S 7 10 Clear CLR 65 43     45%     29.89        
Apr 17 22:35 S 8 10 Clear CLR 66 43     43%     29.89        
Apr 17 22:15 S 8 10 Clear CLR 65 43     44%     29.89        
Apr 17 21:55 S 6 10 Clear CLR 66 43     44%     29.9        
Apr 17 21:35 SSE 6 10 Clear CLR 67 43     42%     29.9        
Apr 17 21:15 SSE 6 10 Clear CLR 67 43     41%     29.9        
Apr 17 20:55 S 9 10 Clear CLR 67 44     42%     29.9        
Apr 17 20:35 SSW 10 10 Clear CLR 68 44     43%     29.89        
Apr 17 20:15 S 9 10 Clear CLR 69 44     40%     29.89        
Apr 17 19:55 S 10 10 Clear CLR 68 45     43%     29.89        
Apr 17 19:35 SSW 8 10 Clear CLR 67 45     47%     29.89        
Apr 17 19:15 SSW 9 10 Clear CLR 69 45     43%     29.88        
Apr 17 18:55 SW 11 10 Clear CLR 72 45     38%   70 29.88        
Apr 17 18:35 SW 15 10 Clear CLR 73 45     36%   72 29.89        
Apr 17 18:15 WSW 13 10 Clear CLR 74 45     35%   73 29.89        
Apr 17 17:55 SW 11 10 Clear CLR 75 45     35%   73 29.89        
Apr 17 17:35 WSW 15 10 Clear CLR 75 44     33%   74 29.9        
Apr 17 17:15 SW 13 10 Clear CLR 75 44     32%   74 29.91        
Apr 17 16:55   10 Clear CLR 75 44     32%   74 29.91        
Apr 17 16:35 SW 15 10 Clear CLR 76 42     31%   74 29.91        
Apr 17 16:15 SW 17 10 Clear CLR 76 42     29%   75 29.92        
Apr 17 15:55   10 Clear CLR 76 42     30%   74 29.93        
Apr 17 15:35 SW 16 10 Clear CLR 76 44     31%   75 29.93        
Apr 17 15:15   10 Clear CLR 76 45     34%   74 29.93        
Apr 17 14:55   10 Clear CLR 74 45     35%   73 29.94        
Apr 17 14:35 SW 16 10 Clear CLR 74 47     39%   73 29.95        
Apr 17 14:15 SW 16 10 Clear CLR 74 49     42%   73 29.96        
Apr 17 13:55 SW 16 10 Clear CLR 73 49     42%   72 29.97        
Apr 17 13:35 SW 14 10 Clear CLR 71 47     42%   70 29.99        
Apr 17 13:15 W 13 10 Clear CLR 70 46     43%     30        
Apr 17 12:55 WSW 14 10 Clear CLR 69 47     45%     30.01        
Apr 17 12:35 WSW 13 10 Clear CLR 67 44     44%     30.02        
Apr 17 12:15 SW 15 10 Clear CLR 67 45     45%     30.03        
Apr 17 11:55 WSW 10 10 Clear CLR 65 43     45%     30.04        
Apr 17 11:35 SSW 8 10 Clear CLR 64 42     45%     30.05        
Apr 17 11:15 S 7 10 Clear CLR 62 40     45%     30.05        
Apr 17 10:55 SSW 10 10 Clear CLR 61 41     48%     30.06        
Apr 17 10:35 WSW 11 10 Clear CLR 60 41     50%     30.07        
Apr 17 10:15 SW 11 10 Clear CLR 58 40     50%     30.08        
Apr 17 09:55 S 5 10 Clear CLR 56 38     51%     30.08        
Apr 17 09:35 S 6 10 Clear CLR 54 37     52%     30.09        
Apr 17 09:15 SSW 7 10 Clear CLR 53 37     54%     30.09        
Apr 17 08:55 SSW 7 10 Clear CLR 51 36     58%     30.1        
Apr 17 08:35 S 8 10 Clear CLR 48 34     59% 44   30.1        
Apr 17 08:15 SSE 6 10 Clear CLR 46 35     64% 43   30.1        
Apr 17 07:55 S 5 10 Clear CLR 43 35     73% 40   30.09        
Apr 17 07:35 SSE 3 10 Clear CLR 41 34     78% 39   30.09        
Apr 17 07:15 Calm 10 Clear CLR 38 35     87%     30.09        
Apr 17 06:55 SSE 3 10 Clear CLR 37 33     87% 34   30.08        
Apr 17 06:35 Calm 10 Clear CLR 35 33     93%     30.08        
Apr 17 06:15 Calm 10 Clear CLR 34 33     95%     30.07        
Apr 17 05:55 SSE 3 10 Clear CLR 34 32     90% 32   30.08        
Apr 17 05:35 SSE 3 10 Clear CLR 35 32     89% 33   30.08        
Apr 17 05:15 ESE 3 10 Clear CLR 36 33     91% 33   30.08        
Apr 17 04:55 Calm 10 Clear CLR 36 34     92%     30.07        
Apr 17 04:35 Calm 10 Clear CLR 35 34     94%     30.08        
Apr 17 04:15 SE 3 10 Clear CLR 35 34     96% 32   30.08        
Apr 17 03:55 ESE 3 10 Clear CLR 35 34     96% 32   30.08        
Apr 17 03:30 Calm 10 Clear CLR 35 34     96%     30.09        
Apr 17 03:15 Calm 10 Clear CLR 35 34     97%     30.09        
Apr 17 02:55 Calm 10 Clear CLR 34 32     92%     30.09        
Apr 17 02:30 Calm 10 Clear CLR 35 33     92%     30.08        
Apr 17 02:15 Calm 10 Clear CLR 35 34     94%     30.08        
Apr 17 01:55 Calm 10 Clear CLR 36 34     91%     30.07        
Apr 17 01:35 Calm 10 Clear CLR 37 34     89%     30.07        
Apr 17 01:15 Calm 10 Clear CLR 35 33     90%     30.08        
Apr 17 00:55 S 5 10 Clear CLR 36 33     90% 32   30.08        
Apr 17 00:35 Calm 10 Clear CLR 37 34     87%     30.08        
Apr 17 00:15 Calm 10 Clear CLR 36 33     89%     30.09        
Apr 16 23:55 Calm 10 Clear CLR 37 33     87%     30.09        
Apr 16 23:35 Calm 10 Clear CLR 37 34     87%     30.09        
Notice The following observation data may not be complete
Jun 12 08:35   10 Mostly Cloudy SCT018 BKN026 BKN100          %              
Jun 12 04:15 Calm 10 Clear CLR 72 66     83%   72 30.12        
Jun 12 04:00 Calm 10 Clear CLR 72 66     83%   72 30.12        
Jun 12 00:15 Calm 10 Clear CLR 70 66     88%     30.12        
Jun 11 12:55 SE 7 10 Partly Cloudy SCT047 SCT055 86        %     30.16        
Jun 11 11:55 SSE 9 10 Partly Cloudy SCT065 84        %     30.17        
Jun 11 06:55 ESE 3 10 Clear CLR 68 61     78%     30.14        
Jun 11 02:35 Calm 10 Clear   63 61     94%     30.1        
Jun 11 02:15 Calm 10 Clear CLR 63 61     94%     30.11        
Jun 09 23:35 Calm 10 Partly Cloudy SCT060 63 59     88%     30.01        
Jun 09 21:35 Calm 10 Clear CLR 64 59     83%     29.98        
Jun 09 20:15 Calm 10 Clear CLR 70 59     69%     29.95        
Notice The following observation data may not be complete
Jun 09 19:15   10 Clear CLR          %              
Jun 09 18:55 Calm 10 Clear CLR 79        %     29.94        
Jun 09 16:35 Calm 10 Clear CLR 79        %     29.95        
Jun 09 10:15 ESE 3 10 Clear CLR 73 55     53%   73 30        
Notice The following observation data may not be complete
Jun 09 04:35   10 Clear CLR          %              
Jun 09 03:35 Calm 10 Clear CLR 55 54     94%     29.93        
Jun 08 21:35 Calm 10 Clear CLR 63 54     72%     29.92        
Jun 08 20:35 N 3 10 Clear CLR 68 54     60%     29.9        
Jun 08 07:55 N 6 10 Clear CLR 61 54     77%     29.96        
Jun 08 06:55 Calm 10 Clear CLR 57 54     88%     29.94        
Jun 07 14:55 N 13 10 Partly Cloudy SCT060 77        %     29.88        
Jun 07 13:55 NNE 11 10 Partly Cloudy SCT060 79        %     29.88        
Jun 07 12:35 NNE 11 10 Clear   77        %     29.9        
Notice The following observation data may not be complete
Jun 06 15:15   10 Clear CLR          %              
Jun 06 07:15 Calm 10 Mostly Cloudy SCT060 BKN080 68 68     100%     29.83        
Jun 06 06:55 Calm 7 Light Rain SCT033 BKN060 OVC085 68 68     100%     29.84   0    
Jun 06 05:55 Calm 10 Light Rain BKN003 OVC009 68 68     100%     29.83        
Jun 06 03:55 Calm 10 Mostly Cloudy BKN007 BKN110 68 66     94%     29.81        
Jun 05 19:15 Calm 10 Light Drizzle SCT050 73 68     83%   74 29.8